Flag Weather past 2 weeks in Bamenda, Cameroon

Now
75 °F

Thunderstorms. Broken clouds.


Feels Like: 75 °F
Forecast: 57 / 81 °F
Wind: No wind

Location: Douala Obs.

Current Time: Oct 31, 2014 at 3:56:54 PM

Latest Report: Oct 31, 2014 at 3:00 PM


Visibility: N/A

Pressure: 29.83 "Hg

Humidity: 89%

Dew point: 72 °F

Location of BamendaLocation

Historic Weather in Bamenda — Graph

°F

Bamenda temperature yesterday

Maximum temperature yesterday: 82 °F (at 2:00 PM)
Minimum temperature yesterday: 77 °F (at 6:00 AM)
Average temperature yesterday: 80 °F

Past Weeks' High & Low Weather Summary

 TemperatureHumidityPressure
High91 °F (Oct 24, 2:00 PM)100% (Oct 17, 1:00 AM)29.98 "Hg (Oct 17, 1:00 AM)
Low73 °F (Oct 17, 2:00 AM)56% (Oct 24, 2:00 PM)29.71 "Hg (Oct 29, 4:00 PM)
Average80 °F89%29.87 "Hg
* Reported Oct 16 2:00 PM — Oct 31 2:00 PM, Bamenda, Weather by CustomWeather, © 2014

Note: Actual official high and low records may vary slightly from our data, if they occured in-between our weather recording intervals... More about our weather records

Advertising

Bamenda weather history for previous 24 hours

 ConditionsComfort  
Time TempWeatherWind HumidityBarometerVisibility
2:00 PM
Oct 31
73 °FThunderstorms. More clouds than sun.7 mph94%29.86 "Hg5 mi
1:00 PM73 °FThunderstorms. More clouds than sun.5 mph94%29.89 "Hg2 mi
12:00 PM73 °FThunderstorms. More clouds than sun.12 mph94%29.89 "Hg4 mi
11:00 AM81 °FThunderstorms. Broken clouds.7 mph84%29.92 "HgN/A
10:00 AM84 °FPartly sunny.7 mph79%29.92 "HgN/A
9:00 AM82 °FPartly sunny.No wind84%29.92 "HgN/A
8:00 AM77 °FThunderstorms. Fog.No wind94%29.89 "Hg2 mi
7:00 AM77 °FThunderstorms. Scattered clouds.No wind94%29.86 "Hg4 mi
6:00 AM77 °FThunderstorms. Passing clouds.No wind94%29.86 "HgN/A
5:00 AM77 °FThunderstorms. Passing clouds.No wind94%29.86 "HgN/A
4:00 AM77 °FThunderstorms. Passing clouds.No wind94%29.83 "HgN/A
3:00 AM77 °FThunderstorms. Passing clouds.No wind94%29.83 "HgN/A
2:00 AM77 °FThunderstorms. Passing clouds.No wind94%29.86 "HgN/A
1:00 AM77 °FPassing clouds.No wind94%29.86 "HgN/A
12:00 AM79 °FPassing clouds.5 mph89%29.89 "HgN/A
11:00 PM
Oct 30
79 °FPassing clouds.No wind94%29.89 "HgN/A
10:00 PM79 °FPassing clouds.No wind94%29.89 "HgN/A
9:00 PM79 °FPassing clouds.No wind94%29.89 "HgN/A
8:00 PM79 °FPassing clouds.5 mph89%29.86 "HgN/A
7:00 PM81 °FPassing clouds.5 mph84%29.83 "HgN/A
6:00 PM82 °FPartly sunny.5 mph84%29.80 "HgN/A
5:00 PM82 °FPartly sunny.7 mph84%29.77 "HgN/A
4:00 PM82 °FPartly sunny.7 mph79%29.77 "HgN/A
3:00 PM82 °FPartly sunny.7 mph84%29.80 "HgN/A
Weather by CustomWeather, © 2014

See weather overviewHow to use our weather pages